Regional Weather Roundup
Issued by NWS

Home | Current Version | Previous Version | Graphics & Text | Print | Product List | Glossary On
Versions: 1 2 3 4 5 6 7 8 9 10 11 12 13 14 15 16 17 18 19 20 21 22 23 24 25 26 27 28
000
ASUS45 KCYS 230710
RWRWY

WYOMING REGIONAL WEATHER ROUNDUP
NATIONAL WEATHER SERVICE CHEYENNE WY
100 AM MDT WED APR 23 2014

NOTE:  "FAIR" INDICATES FEW OR NO CLOUDS BELOW 12,000 FEET
WITH NO SIGNIFICANT WEATHER AND/OR OBSTRUCTIONS TO VISIBILITY.

WYZ001-230800-
YELLOWSTONE NATIONAL PARK

CITY           SKY/WX    TMP DP  RH WIND       PRES   REMARKS
LK YELLOWSTONE   N/A     31  27  85 VRB3      29.71R
W YELLOWSTONE  NOT AVBL

$$
WYZ002>013-054>058-071-098>099-230800-
NORTHERN WYOMING

CITY           SKY/WX    TMP DP  RH WIND       PRES   REMARKS
JACKSON        CLOUDY    34  34 100 S7        29.72F WCI  28
CODY           CLOUDY    54  34  47 W15G28    29.46R
GREYBULL       CLOUDY    62  36  37 S16G23    29.41R
WORLAND        CLOUDY    61  34  36 SW39G52   29.48R
SHERIDAN         N/A     52  30  43 S18G33      N/A
BUFFALO        CLOUDY    53  37  54 SE14      29.42F
GILLETTE       MOCLDY    51  42  71 S15       29.45F
HULETT         FAIR      64  36  34 S16G22    29.46
NEWCASTLE      FAIR      59  41  51 SE17      29.52

$$
WYZ014>020-022>026-101>103-230800-
CENTRAL WYOMING

CITY           SKY/WX    TMP DP  RH WIND       PRES   REMARKS
BIG PINEY      MOCLDY    34  22  61 N10       29.74R WCI  26
PINEDALE       CLOUDY    36  28  75 NW14G20   29.74R WCI  27
DUBOIS         FAIR      37  25  60 W43G53    29.56F WCI  23
LANDER         CLOUDY    50  35  56 W8        29.53F
RIVERTON       CLOUDY    46  40  79 S12       29.54F
CASPER         MOCLDY    54  30  40 W21G31    29.54R
DOUGLAS        PTCLDY    51  38  60 SE7       29.54F

$$
WYZ021-027>030-104>119-230800-
SOUTHERN WYOMING

CITY           SKY/WX    TMP DP  RH WIND       PRES   REMARKS
EVANSTON       CLOUDY    32  30  92 SW15      29.82F WCI  22
FORT BRIDGER   FAIR      33  32  94 W14G22    29.82F WCI  24
ROCK SPRINGS   CLOUDY    37  29  72 W20G29    29.74F WCI  27
DIXON          DRIZZLE   56  32  40 S21G30    29.69F
RAWLINS        LGT RAIN  47  36  65 W17G31    29.70R
SARATOGA       CLOUDY    52  32  46 SW22G31   29.70R
LARAMIE        PTCLDY    51  28  41 S17       29.69F
CHEYENNE       CLOUDY    51  35  54 SW8       29.66F
TORRINGTON     CLOUDY    50  41  71 E6        29.54F
PINE BLUFFS    FAIR      52  39  62 S10       29.62F

$$



USA.gov is the U.S. government's official web portal to all federal, state and local government web resources and services.